| time (UTC) | temp C | wind direction | speed KPH | gust KPH | rain 1hr cm | rain 24hr cm | rain mn cm | humidity % | barometer mb |
| 20260831010109 | 23 | 0 | 0.0 | 1.6 | 0.00 | 0.43 | 0.43 | 87 | 1012.8 |
| 20260831004604 | 23 | 0 | 0.0 | 4.8 | 0.03 | 0.43 | 0.43 | 87 | 1012.5 |
| 20260831003101 | 23 | 160 | 0.0 | 3.2 | 0.03 | 0.43 | 0.43 | 87 | 1012.6 |
| 20260831001630 | 23 | 0 | 0.0 | 1.6 | 0.05 | 0.43 | 0.43 | 87 | 1013.0 |
| 20260831000105 | 23 | 0 | 0.0 | 1.6 | 0.05 | 0.43 | 0.43 | 86 | 1013.3 |
| 20260830234603 | 23 | 0 | 0.0 | 0.0 | 0.03 | 0.41 | 0.41 | 86 | 1013.6 |
| 20260830233116 | 23 | 0 | 0.0 | 1.6 | 0.03 | 0.41 | 0.41 | 86 | 1013.4 |
| 20260830231609 | 23 | 0 | 0.0 | 1.6 | 0.00 | 0.38 | 0.38 | 85 | 1013.7 |
| 20260830230120 | 23 | 0 | 0.0 | 0.0 | 0.03 | 0.38 | 0.38 | 85 | 1014.1 |
| 20260830224606 | 23 | 0 | 0.0 | 0.0 | 0.03 | 0.38 | 0.38 | 85 | 1014.2 |
| 20260830223103 | 23 | 0 | 0.0 | 0.0 | 0.03 | 0.38 | 0.38 | 84 | 1013.8 |
| 20260830221604 | 23 | 0 | 0.0 | 0.0 | 0.03 | 0.38 | 0.38 | 84 | 1013.8 |
| 20260830220107 | 23 | 0 | 0.0 | 0.0 | 0.00 | 0.36 | 0.36 | 83 | 1013.7 |
| 20260830214559 | 23 | 160 | 0.0 | 3.2 | 0.00 | 0.36 | 0.36 | 83 | 1014.0 |
| 20260830213105 | 23 | 0 | 0.0 | 4.8 | 0.03 | 0.36 | 0.36 | 82 | 1013.9 |
| 20260830211601 | 23 | 158 | 0.0 | 4.8 | 0.08 | 0.36 | 0.36 | 83 | 1014.2 |
| 20260830210106 | 23 | 167 | 0.0 | 4.8 | 0.10 | 0.36 | 0.36 | 82 | 1014.2 |
| 20260830204605 | 23 | 143 | 0.0 | 6.4 | 0.10 | 0.36 | 0.36 | 81 | 1014.0 |
| 20260830203103 | 23 | 158 | 1.6 | 9.7 | 0.08 | 0.33 | 0.33 | 78 | 1014.2 |
| 20260830201600 | 24 | 205 | 1.6 | 6.4 | 0.03 | 0.28 | 0.28 | 76 | 1014.2 |
| 20260830200057 | 24 | 0 | 0.0 | 0.0 | 0.00 | 0.25 | 0.25 | 73 | 1014.3 |
| 20260830194611 | 25 | 0 | 0.0 | 3.2 | 0.00 | 0.25 | 0.25 | 71 | 1014.2 |
| 20260830193102 | 26 | 290 | 0.0 | 3.2 | 0.00 | 0.25 | 0.25 | 68 | 1014.3 |
| 20260830191607 | 26 | 0 | 0.0 | 4.8 | 0.00 | 0.25 | 0.25 | 66 | 1013.9 |
| 20260830190106 | 26 | 0 | 0.0 | 8.0 | 0.00 | 0.25 | 0.25 | 64 | 1013.7 |
| 20260830184600 | 27 | 189 | 0.0 | 6.4 | 0.00 | 0.25 | 0.25 | 62 | 1013.4 |
| 20260830183106 | 27 | 0 | 0.0 | 14.5 | 0.00 | 0.25 | 0.25 | 63 | 1012.8 |
| 20260830181602 | 27 | 138 | 3.2 | 11.3 | 0.00 | 0.25 | 0.25 | 62 | 1012.8 |
| 20260830180106 | 27 | 107 | 1.6 | 12.9 | 0.00 | 0.25 | 0.25 | 61 | 1012.8 |
| 20260830174615 | 27 | 143 | 3.2 | 14.5 | 0.00 | 0.25 | 0.25 | 62 | 1013.0 |
| 20260830173103 | 26 | 184 | 1.6 | 16.1 | 0.00 | 0.25 | 0.25 | 63 | 1013.4 |
| 20260830171607 | 25 | 0 | 0.0 | 14.5 | 0.00 | 0.25 | 0.25 | 66 | 1013.5 |
| 20260830164601 | 25 | 160 | 3.2 | 12.9 | 0.00 | 0.25 | 0.25 | 65 | 1013.3 |
| 20260830163109 | 25 | 135 | 4.8 | 17.7 | 0.00 | 0.25 | 0.25 | 68 | 1013.3 |
| 20260830161606 | 24 | 205 | 3.2 | 16.1 | 0.00 | 0.25 | 0.25 | 71 | 1013.4 |
| 20260830160115 | 23 | 0 | 3.2 | 17.7 | 0.00 | 0.25 | 0.25 | 74 | 1013.4 |
| 20260830154601 | 22 | 188 | 3.2 | 12.9 | 0.00 | 0.25 | 0.25 | 76 | 1013.3 |
| 20260830153108 | 22 | 143 | 1.6 | 12.9 | 0.00 | 0.25 | 0.25 | 80 | 1013.2 |
| 20260830151604 | 21 | 133 | 1.6 | 17.7 | 0.00 | 0.25 | 0.25 | 81 | 1013.1 |
| 20260830150111 | 21 | 139 | 1.6 | 9.7 | 0.00 | 0.25 | 0.25 | 85 | 1013.3 |
| 20260830144606 | 20 | 75 | 1.6 | 8.0 | 0.00 | 0.25 | 0.25 | 85 | 1013.3 |
| 20260830143107 | 20 | 148 | 1.6 | 11.3 | 0.03 | 0.25 | 0.25 | 86 | 1013.6 |
| 20260830141606 | 20 | 186 | 1.6 | 8.0 | 0.03 | 0.25 | 0.25 | 87 | 1013.4 |
| 20260830140107 | 20 | 178 | 1.6 | 8.0 | 0.05 | 0.25 | 0.25 | 87 | 1013.7 |
| 20260830134607 | 19 | 0 | 3.2 | 11.3 | 0.10 | 0.25 | 0.25 | 87 | 1013.8 |
| 20260830133059 | 19 | 183 | 1.6 | 8.0 | 0.10 | 0.23 | 0.23 | 87 | 1014.4 |
| 20260830131607 | 19 | 0 | 1.6 | 8.0 | 0.15 | 0.23 | 0.23 | 87 | 1014.1 |
| 20260830130109 | 20 | 176 | 1.6 | 6.4 | 0.15 | 0.20 | 0.20 | 86 | 1014.5 |
| 20260830124605 | 20 | 0 | 0.0 | 6.4 | 0.10 | 0.15 | 0.15 | 86 | 1014.7 |
| 20260830123059 | 20 | 153 | 0.0 | 4.8 | 0.05 | 0.10 | 0.10 | 85 | 1014.6 |
| 20260830121607 | 20 | 156 | 0.0 | 3.2 | 0.03 | 0.08 | 0.08 | 83 | 1014.6 |
| 20260830120104 | 20 | 0 | 0.0 | 6.4 | 0.05 | 0.05 | 0.05 | 82 | 1014.2 |
| 20260830114612 | 20 | 0 | 0.0 | 3.2 | 0.05 | 0.05 | 0.05 | 81 | 1013.9 |
| 20260830113100 | 20 | 0 | 0.0 | 6.4 | 0.05 | 0.05 | 0.05 | 80 | 1013.8 |
| 20260830111600 | 21 | 0 | 0.0 | 4.8 | 0.05 | 0.05 | 0.05 | 78 | 1013.5 |
| 20260830104606 | 21 | 173 | 1.6 | 8.0 | 0.00 | 0.00 | 0.00 | 74 | 1012.8 |
| 20260830103103 | 22 | 0 | 0.0 | 11.3 | 0.00 | 0.00 | 0.00 | 73 | 1012.8 |
| 20260830101602 | 21 | 139 | 3.2 | 9.7 | 0.00 | 0.00 | 0.00 | 73 | 1012.7 |
| 20260830094605 | 21 | 167 | 1.6 | 9.7 | 0.00 | 0.00 | 0.00 | 73 | 1012.9 |
| 20260830093101 | 22 | 155 | 3.2 | 9.7 | 0.00 | 0.00 | 0.00 | 72 | 1012.7 |
| 20260830091600 | 22 | 157 | 3.2 | 9.7 | 0.00 | 0.00 | 0.00 | 71 | 1012.8 |
| 20260830090113 | 22 | 134 | 3.2 | 11.3 | 0.00 | 0.00 | 0.00 | 70 | 1012.9 |
| 20260830084603 | 22 | 0 | 1.6 | 9.7 | 0.00 | 0.00 | 0.00 | 70 | 1013.0 |
| 20260830083101 | 22 | 136 | 1.6 | 6.4 | 0.00 | 0.00 | 0.00 | 69 | 1013.2 |
| 20260830081605 | 22 | 172 | 1.6 | 12.9 | 0.00 | 0.00 | 0.00 | 68 | 1013.3 |
| 20260830080104 | 22 | 0 | 0.0 | 8.0 | 0.00 | 0.00 | 0.00 | 68 | 1013.2 |
| 20260830074605 | 22 | 156 | 1.6 | 8.0 | 0.00 | 0.00 | 0.00 | 67 | 1013.3 |
| 20260830073103 | 22 | 0 | 0.0 | 4.8 | 0.00 | 0.00 | 0.00 | 67 | 1013.4 |
| 20260830071604 | 22 | 161 | 1.6 | 8.0 | 0.00 | 0.00 | 0.00 | 67 | 1013.3 |
| 20260830070113 | 22 | 133 | 1.6 | 12.9 | 0.00 | 0.00 | 0.00 | 67 | 1013.5 |
| 20260830064603 | 22 | 192 | 3.2 | 11.3 | 0.00 | 0.00 | 0.00 | 68 | 1013.5 |
| 20260830063115 | 23 | 172 | 1.6 | 9.7 | 0.00 | 0.00 | 0.00 | 68 | 1013.7 |
| 20260830061607 | 23 | 195 | 3.2 | 11.3 | 0.00 | 0.00 | 0.00 | 66 | 1013.9 |
| 20260830060107 | 23 | 131 | 1.6 | 9.7 | 0.00 | 0.00 | 0.00 | 67 | 1013.9 |
| 20260830054604 | 23 | 129 | 1.6 | 8.0 | 0.00 | 0.00 | 0.00 | 67 | 1013.9 |
| 20260830053101 | 23 | 201 | 3.2 | 11.3 | 0.00 | 0.00 | 0.00 | 68 | 1013.7 |
| 20260830051613 | 23 | 214 | 1.6 | 11.3 | 0.00 | 0.00 | 0.00 | 68 | 1013.8 |
| 20260830050100 | 22 | 119 | 3.2 | 9.7 | 0.00 | 0.00 | 0.00 | 69 | 1013.8 |
| 20260830044610 | 22 | 226 | 3.2 | 12.9 | 0.00 | 0.00 | 0.00 | 69 | 1013.9 |
| 20260830043102 | 22 | 141 | 1.6 | 12.9 | 0.00 | 0.00 | 0.00 | 70 | 1014.1 |
| 20260830041654 | 23 | 173 | 1.6 | 11.3 | 0.00 | 0.00 | 0.00 | 70 | 1014.1 |
| 20260830040111 | 23 | 0 | 3.2 | 9.7 | 0.00 | 0.00 | 0.00 | 71 | 1014.2 |
| 20260830034622 | 23 | 125 | 1.6 | 9.7 | 0.00 | 0.00 | 0.00 | 71 | 1014.4 |
| 20260830033101 | 23 | 82 | 1.6 | 9.7 | 0.00 | 0.00 | 0.00 | 71 | 1014.4 |
| 20260830031605 | 23 | 186 | 3.2 | 11.3 | 0.00 | 0.00 | 0.00 | 71 | 1014.4 |
| 20260830030108 | 23 | 174 | 1.6 | 8.0 | 0.00 | 0.00 | 0.00 | 71 | 1014.5 |
| 20260830024601 | 23 | 138 | 3.2 | 12.9 | 0.00 | 0.00 | 0.00 | 71 | 1014.3 |
| 20260830023100 | 23 | 0 | 1.6 | 6.4 | 0.00 | 0.00 | 0.00 | 71 | 1014.4 |
| 20260830021613 | 23 | 153 | 0.0 | 4.8 | 0.00 | 0.00 | 0.00 | 71 | 1014.5 |
| 20260830020111 | 23 | 167 | 1.6 | 9.7 | 0.00 | 0.00 | 0.00 | 71 | 1014.7 |
| 20260830014615 | 23 | 150 | 1.6 | 8.0 | 0.00 | 0.00 | 0.00 | 71 | 1015.0 |
| 20260830013110 | 23 | 150 | 1.6 | 6.4 | 0.00 | 0.00 | 0.00 | 70 | 1014.7 |
| 20260830011602 | 23 | 163 | 1.6 | 9.7 | 0.00 | 0.00 | 0.00 | 70 | 1014.7 |